FW0420 Weather Reports


time (UTC)temp
C
wind
direction
speed
KPH
gust
KPH
rain 1hr
cm
rain 24hr
cm
rain mn
cm
humidity
%
barometer
mb
20260506153028 8 335 4.8 12.9 0.00 0.00 0.00 60 1010.8
20260506151528 8 110 3.2 14.5 0.00 0.00 0.00 58 1010.8
20260506150021 7 355 4.8 12.9 0.00 0.00 0.00 60 1010.9
20260506144520 7 37 4.8 14.5 0.00 0.00 0.00 61 1010.6
20260506143018 7 339 4.8 9.7 0.00 0.00 0.00 63 1010.5
20260506141516 7 296 4.8 12.9 0.00 0.00 0.00 65 1010.3
20260506140020 6 355 6.4 14.5 0.00 0.00 0.00 64 1010.3
20260506134513 6 11 9.7 17.7 0.00 0.00 0.00 65 1010.2
20260506133011 6 15 4.8 14.5 0.00 0.00 0.00 66 1010.0
20260506131508 6 340 6.4 14.5 0.00 0.00 0.00 67 1009.9
20260506130002 6 26 4.8 14.5 0.00 0.00 0.00 65 1009.7
20260506124600 5 33 6.4 19.3 0.00 0.00 0.00 68 1009.5
20260506123110 5 24 3.2 16.1 0.00 0.00 0.00 69 1009.4
20260506121559 5 331 6.4 14.5 0.00 0.00 0.00 72 1009.3
20260506120046 5 15 8.0 17.7 0.00 0.00 0.00 73 1009.0
20260506114542 4 78 8.0 14.5 0.00 0.00 0.00 74 1008.7
20260506113041 4 343 3.2 8.0 0.00 0.00 0.00 77 1008.6
20260506111536 3 360 0.0 3.2 0.00 0.00 0.00 75 1008.3
20260506110034 4 360 0.0 1.6 0.00 0.00 0.00 74 1007.9
20260506104531 4 360 0.0 3.2 0.00 0.00 0.00 74 1007.8
20260506103028 4 360 0.0 6.4 0.00 0.00 0.00 71 1007.6
20260506101524 5 360 3.2 9.7 0.00 0.00 0.00 70 1007.6
20260506100020 6 344 4.8 9.7 0.00 0.00 0.00 75 1007.1
20260506094518 6 9 4.8 8.0 0.00 0.00 0.00 78 1006.8
20260506093016 6 355 1.6 8.0 0.00 0.00 0.00 79 1006.9
20260506091516 6 340 4.8 8.0 0.00 0.00 0.00 80 1006.9
20260506090013 6 9 1.6 6.4 0.00 0.00 0.00 79 1006.6
20260506084511 6 10 4.8 8.0 0.00 0.00 0.00 77 1006.7
20260506083016 6 338 3.2 8.0 0.00 0.00 0.00 76 1006.8
20260506081507 6 355 3.2 6.4 0.00 0.00 0.00 74 1006.9
20260506073101 7 319 3.2 6.4 0.00 0.00 0.00 69 1006.7
20260506071557 7 337 4.8 8.0 0.00 0.00 0.00 67 1006.6
20260506061551 8 287 4.8 12.9 0.00 0.00 0.00 60 1006.7
20260506044542 8 279 8.0 14.5 0.00 0.00 0.00 55 1006.3
20260506043034 8 313 6.4 14.5 0.00 0.00 0.00 56 1006.1
20260506041548 8 265 6.4 14.5 0.00 0.00 0.00 54 1006.2
20260506040032 8 299 4.8 14.5 0.00 0.00 0.00 54 1006.2
20260506034538 9 317 4.8 14.5 0.00 0.00 0.00 53 1006.3
20260506033026 9 305 4.8 11.3 0.00 0.00 0.00 54 1006.3
20260506031525 9 279 4.8 11.3 0.00 0.00 0.00 53 1006.3
20260506030022 9 298 4.8 8.0 0.00 0.00 0.00 53 1006.2
20260506024523 9 281 4.8 11.3 0.00 0.00 0.00 52 1006.3
20260506023019 9 291 3.2 12.9 0.00 0.00 0.00 51 1006.0
20260506021518 10 252 3.2 12.9 0.00 0.00 0.00 52 1006.4
20260506020015 10 283 3.2 12.9 0.00 0.00 0.00 50 1006.0
20260506014512 10 298 4.8 11.3 0.00 0.00 0.00 50 1005.7
20260506013028 10 292 4.8 14.5 0.00 0.00 0.00 48 1005.7
20260506011521 10 259 6.4 17.7 0.00 0.00 0.00 49 1005.5
20260506010009 10 279 8.0 17.7 0.00 0.00 0.00 47 1005.5
20260506004507 10 292 3.2 16.1 0.00 0.00 0.00 47 1005.5
20260506003006 11 299 9.7 20.9 0.00 0.00 0.00 45 1005.4
20260506001503 11 317 14.5 20.9 0.00 0.00 0.00 45 1005.3
20260506000000 11 279 4.8 14.5 0.00 0.00 0.00 45 1005.0
20260505234559 11 271 8.0 16.1 0.00 0.00 0.00 44 1004.9
20260505233058 11 267 8.0 19.3 0.00 0.00 0.00 44 1004.7
20260505231558 11 268 6.4 19.3 0.00 0.00 0.00 43 1004.5
20260505230120 12 269 8.0 20.9 0.00 0.00 0.00 45 1004.5
20260505224555 12 233 6.4 17.7 0.00 0.00 0.00 54 1004.6
20260505223054 12 281 3.2 12.9 0.00 0.00 0.00 54 1004.6
20260505221559 12 257 6.4 16.1 0.00 0.00 0.00 54 1004.6
20260505220056 12 26 4.8 19.3 0.00 0.00 0.00 54 1004.6
20260505214551 12 200 6.4 24.1 0.00 0.00 0.00 56 1004.7
20260505213052 12 267 11.3 16.1 0.00 0.00 0.00 54 1004.6
20260505211600 12 220 4.8 17.7 0.00 0.00 0.00 55 1004.7
20260505210048 12 294 11.3 19.3 0.00 0.00 0.00 56 1004.7
20260505204547 12 266 12.9 19.3 0.00 0.00 0.00 61 1004.5
20260505203047 12 242 8.0 17.7 0.00 0.00 0.00 63 1004.6
20260505201548 12 289 8.0 19.3 0.00 0.00 0.00 63 1004.5
20260505200048 12 198 8.0 16.1 0.00 0.00 0.00 62 1004.4
20260505194545 12 281 12.9 20.9 0.00 0.00 0.00 63 1004.6
20260505193057 12 252 11.3 20.9 0.00 0.00 0.00 62 1004.6
20260505191544 12 277 8.0 14.5 0.00 0.00 0.00 64 1004.6
20260505190045 12 15 6.4 20.9 0.00 0.00 0.00 63 1004.6
20260505184540 12 9 4.8 20.9 0.00 0.00 0.00 62 1004.6
20260505183039 12 245 9.7 17.7 0.00 0.00 0.00 63 1004.3
20260505181543 12 278 8.0 27.4 0.00 0.00 0.00 61 1004.1
20260505180035 12 244 9.7 22.5 0.00 0.00 0.00 62 1003.9
20260505174533 12 271 8.0 17.7 0.00 0.00 0.00 68 1003.8
20260505173031 11 265 9.7 20.9 0.00 0.00 0.00 70 1003.9
20260505171531 11 242 6.4 22.5 0.00 0.00 0.00 70 1003.6
20260505170032 11 281 9.7 20.9 0.00 0.00 0.00 73 1003.7
20260505164528 11 181 8.0 14.5 0.00 0.00 0.00 74 1004.0
20260505163027 10 196 1.6 12.9 0.00 0.00 0.00 75 1003.9
20260505161539 10 187 4.8 11.3 0.00 0.00 0.00 75 1003.9